Regional Weather Roundup
Issued by NWS

Home | Current Version | Previous Version | Graphics & Text | Print | Product List | Glossary On
Versions: 1 2 3 4 5 6 7 8 9 10 11 12 13 14 15 16 17 18 19 20 21 22 23 24 25 26 27 28 29 30 31 32 33 34 35 36 37 38 39 40 41 42 43 44 45 46 47 48 49 50
000
ASUS43 KLSX 251557
RWRMO

WEATHER SUMMARY FOR MISSOURI
NATIONAL WEATHER SERVICE SPRINGFIELD MO
1000 AM CST SAT FEB 25 2017

NOTE: "FAIR" INDICATES FEW OR NO CLOUDS BELOW 12,000 FEET WITH NO
       SIGNIFICANT WEATHER AND/OR OBSTRUCTIONS TO VISIBILITY.
       CURRENT SKY AND/OR WEATHER CONDITIONS ARE NOT AVAILABLE FOR
       CHILLICOTHE AND FARMINGTON.

MOZ001>031-035>038-043-044-053-054-251700-
...NORTHERN AND WESTERN MISSOURI...

CITY           SKY/WX    TMP DP  RH WIND       PRES   REMARKS
KANSAS CTY INT MOSUNNY   29  16  58 W9        30.17R WCI  20
LEE`S SUMMIT   SUNNY     29  14  53 NW12      30.17S WCI  19
ST JOSEPH      SUNNY     26  19  74 NW14      30.19R WCI  14
CHILLICOTHE      N/A     27  14  58 NW12G17   30.15R WCI  17

$$
MOZ066>068-077>081-088>096-101>105-251700-
...SOUTHWEST MISSOURI...

CITY           SKY/WX    TMP DP  RH WIND       PRES   REMARKS
SPRINGFIELD    MOSUNNY   30  18  60 NW12G20   30.15R WCI  20
JOPLIN         SUNNY     31  19  61 NW13      30.21S WCI  21
BRANSON        SUNNY     30  18  59 W7        30.15S WCI  23

$$
MOZ032>034-039>042-045>050-055>058-069>072-251700-
...CENTRAL MISSOURI...

CITY           SKY/WX    TMP DP  RH WIND       PRES   REMARKS
COLUMBIA       NOT AVBL
JEFFERSON CITY MOSUNNY   28  14  55 NW16G22   30.13S WCI  16
ROLLA          SUNNY     29  15  56 NW13G23   30.08R WCI  19
SEDALIA        SUNNY     30  13  49 NW17      30.15S WCI  18
WARRENSBURG    SUNNY     30  14  51 W14       30.17S WCI  20

$$
MOZ051-052-059>065-251700-
...EAST CENTRAL MISSOURI...

CITY           SKY/WX    TMP DP  RH WIND       PRES   REMARKS
ST LOUIS INTL  MOSUNNY   34  15  46 NW15G24   30.07R WCI  24

$$
MOZ072>076-082>087-097>100-106>115-251700-
...SOUTH CENTRAL AND SOUTHEAST MISSOURI...

CITY           SKY/WX    TMP DP  RH WIND       PRES   REMARKS
CAPE GIRARDEAU SUNNY     36  17  46 NW14      30.09R WCI  27
POPLAR BLUFF   SUNNY     35  19  52 NW10      30.11R WCI  27
WEST PLAINS    SUNNY     34  17  50 NW13      30.10R WCI  25

$$


USA.gov is the U.S. government's official web portal to all federal, state and local government web resources and services.